This is the latest recevied weather packets stored in our database for station/object M0JUI-1. If no packets are shown the sender has not sent any weather packets the latest 10 day(s).
| Time | Temp. | Humidity | Pressure | Rain* | Wind** | Luminosity | Snow |
|---|---|---|---|---|---|---|---|
| 1778078259 | 12.22° C | 74% | 1014.9 hPa | 0 mm | - | 495 W/m² | - |
| 1778077959 | 11.67° C | 74% | 1014.8 hPa | 0 mm | - | 312 W/m² | - |
| 1778077659 | 11.67° C | 75% | 1015 hPa | 0 mm | - | 243 W/m² | - |
| 1778077359 | 11.67° C | 78% | 1014.9 hPa | 0 mm | - | 220 W/m² | - |
| 1778077059 | 11.67° C | 77% | 1015.1 hPa | 0 mm | - | 207 W/m² | - |
| 1778076759 | 12.22° C | 77% | 1015 hPa | 0 mm | - | 196 W/m² | - |
| 1778076460 | 11.67° C | 77% | 1014.9 hPa | 0 mm | - | 207 W/m² | - |
| 1778076159 | 12.22° C | 77% | 1015 hPa | 0 mm | - | 201 W/m² | - |
| 1778075859 | 11.67° C | 79% | 1015 hPa | 0 mm | - | 178 W/m² | - |
| 1778075559 | 11.67° C | 78% | 1015 hPa | 0 mm | - | 166 W/m² | - |
| 1778075264 | 12.22° C | 78% | 1015.1 hPa | 0 mm | - | 191 W/m² | - |
| 1778074960 | 12.22° C | 76% | 1015 hPa | 0 mm | - | 223 W/m² | - |
| 1778074659 | 12.78° C | 75% | 1015 hPa | 0 mm | - | 218 W/m² | - |
| 1778074359 | 12.22° C | 75% | 1015 hPa | 0 mm | - | 178 W/m² | - |
| 1778074059 | 12.22° C | 73% | 1014.9 hPa | 0 mm | - | 177 W/m² | - |
| 1778073759 | 12.78° C | 74% | 1014.9 hPa | 0 mm | - | 269 W/m² | - |
| 1778073460 | 12.78° C | 75% | 1015 hPa | 0 mm | - | 749 W/m² | - |
| 1778073160 | 12.22° C | 77% | 1015.1 hPa | 0 mm | - | 724 W/m² | - |
| 1778072859 | 11.67° C | 78% | 1015.2 hPa | 0 mm | - | 226 W/m² | - |
| 1778072559 | 11.67° C | 80% | 1015 hPa | 0 mm | - | 239 W/m² | - |
| 1778072260 | 11.67° C | 79% | 1015.1 hPa | 0 mm | - | 223 W/m² | - |
| 1778071959 | 12.22° C | 79% | 1015.3 hPa | 0 mm | - | 252 W/m² | - |
| 1778071659 | 12.22° C | 80% | 1015.2 hPa | 0 mm | - | 690 W/m² | - |
| 1778071347 | 11.67° C | 81% | 1015.2 hPa | 0 mm | - | 275 W/m² | - |
| 1778071048 | 11.67° C | 80% | 1015.1 hPa | 0 mm | - | 208 W/m² | - |
* Rain latest hour (hover to see other rain measurements)
** Current wind speed in m/s (hover to see current wind gust speed)